Weather History for Lee's Summit, MO

Change the Weather History Date:

Wednesday, January 22, 2014

  Actual Average (KMKC) Record (KMKC)
Temperature  
Mean Temperature 22 °F -  
Max Temperature 36 °F 37 °F 66 °F (2009)
Min Temperature 8 °F 21 °F 3 °F (2003)
Degree Days  
Heating Degree Days 42    
Moisture  
Dew Point 5 °F    
Average Humidity 44    
Maximum Humidity 57    
Minimum Humidity 26    
Precipitation  
Precipitation 0.00 in - - ()
Sea Level Pressure  
Sea Level Pressure 30.21 in    
Wind  
Wind Speed 12 mph (WNW)    
Max Wind Speed 25 mph    
Max Gust Speed 34 mph    
Visibility 10 miles    
Events      
Averages and records for this station are not official NWS values.
T = Trace of Precipitation, MM = Missing Value Source: NWS Daily Summary

Daily Weather History Graph

Daily Weather History Graph

Search for Another Location

Airport:

Trip Planner

Search our weather history database for the weather conditions in past years. The results will help you decide how hot, cold, wet, or windy it might be!

Date:

Astronomy

Jan. 22, 2014 Rise Set
Actual Time 7:31 AM CST 5:27 PM CST
Civil Twilight 7:02 AM CST 5:56 PM CST
Nautical Twilight 6:30 AM CST 6:28 PM CST
Astronomical Twilight 5:58 AM CST 7:00 PM CST
Moon 11:56 PM CST (1/22) 10:36 AM CST (1/22)
Length of Visible Light 10h 53m
Length of Day
9h 55m
Waning Gibbous, 65% of the Moon is Illuminated
Jan 22
Waning Gibbous
Jan 23
Last Quarter
Jan 30
New
Feb 6
First Quarter
Feb 14
Full

Hourly Weather History & Observations

Time (CST) Temp. Windchill Dew Point Humidity Pressure Visibility Wind Dir Wind Speed Gust Speed Precip Events Conditions
12:53 AM 18.0 °F 6.9 °F 1.0 °F 48% 30.14 in 10.0 mi SW 9.2 mph - N/A   Clear
1:53 AM 19.9 °F 7.3 °F 1.0 °F 44% 30.12 in 10.0 mi SW 12.7 mph - N/A   Overcast
2:53 AM 21.9 °F 9.2 °F 1.0 °F 40% 30.12 in 10.0 mi WSW 13.8 mph - N/A   Overcast
3:53 AM 21.9 °F 12.5 °F 3.0 °F 44% 30.11 in 10.0 mi WSW 8.1 mph - N/A   Overcast
4:53 AM 24.1 °F 15.2 °F 7.0 °F 48% 30.11 in 10.0 mi West 8.1 mph - N/A   Overcast
5:01 AM 24.1 °F 15.2 °F 7.0 °F 48% 30.07 in 10.0 mi West 8.1 mph - N/A   Overcast
5:53 AM 24.1 °F 13.7 °F 7.0 °F 48% 30.12 in 10.0 mi West 10.4 mph - N/A   Overcast
6:12 AM 24.1 °F 15.2 °F 8.1 °F 51% 30.08 in 10.0 mi West 8.1 mph - N/A   Overcast
6:53 AM 24.1 °F 15.2 °F 8.1 °F 51% 30.14 in 10.0 mi West 8.1 mph - N/A   Partly Cloudy
7:53 AM 23.0 °F 14.7 °F 9.0 °F 55% 30.15 in 10.0 mi West 6.9 mph - N/A   Clear
8:53 AM 27.0 °F 19.5 °F 12.0 °F 53% 30.17 in 10.0 mi West 6.9 mph - N/A   Mostly Cloudy
9:53 AM 28.9 °F 16.9 °F 15.1 °F 56% 30.18 in 10.0 mi WNW 17.3 mph 23.0 mph N/A   Partly Cloudy
10:53 AM 30.0 °F 17.5 °F 10.9 °F 45% 30.22 in 10.0 mi NW 19.6 mph 27.6 mph N/A   Scattered Clouds
11:53 AM 30.9 °F 21.2 °F 8.1 °F 38% 30.22 in 10.0 mi NW 12.7 mph - N/A   Clear
12:53 PM 33.1 °F 27.7 °F 5.0 °F 31% 30.17 in 10.0 mi NNW 5.8 mph - N/A   Clear
1:53 PM 35.1 °F 28.6 °F 3.0 °F 26% 30.16 in 10.0 mi WSW 8.1 mph - N/A   Clear
2:53 PM 35.1 °F 26.4 °F 3.0 °F 26% 30.16 in 10.0 mi NNW 12.7 mph - N/A   Mostly Cloudy
3:53 PM 36.0 °F 27.1 °F 3.9 °F 26% 30.17 in 10.0 mi NW 13.8 mph 24.2 mph N/A   Partly Cloudy
4:53 PM 34.0 °F 25.0 °F 6.1 °F 31% 30.18 in 10.0 mi NW 12.7 mph - N/A   Clear
5:53 PM 33.1 °F 23.9 °F 8.1 °F 35% 30.21 in 10.0 mi NNW 12.7 mph - N/A   Overcast
6:53 PM 28.0 °F 15.3 °F 10.9 °F 49% 30.28 in 10.0 mi North 18.4 mph 31.1 mph N/A   Scattered Clouds
7:53 PM 24.1 °F 8.0 °F 10.0 °F 55% 30.33 in 10.0 mi North 25.3 mph 34.5 mph N/A   Overcast
8:53 PM 19.0 °F 1.6 °F 6.1 °F 57% 30.38 in 10.0 mi North 24.2 mph 33.4 mph N/A   Partly Cloudy
9:53 PM 12.9 °F -6.1 °F -9.9 °F 35% 30.45 in 10.0 mi North 23.0 mph 33.4 mph N/A   Clear
10:53 PM 9.0 °F -11.4 °F -8.0 °F 46% 30.50 in 10.0 mi North 23.0 mph 28.8 mph N/A   Clear
11:53 PM 8.1 °F -9.0 °F -8.0 °F 48% 30.55 in 10.0 mi NNW 15.0 mph 24.2 mph N/A   Clear